Location: Pedholt
(56.0260°N, 10.2097°E)
Time: 06:46:48
(UTC+00:00)

Transit 2A Rocket - Pass Details

Date: 06 August 2021
Orbit: 586 x 917 km, 66.7° (Epoch: 24 September)

Event Time Altitude Azimuth Distance (km) Brightness Sun altitude
Rises 12:01:20 0° 191° (S) 2,881 8.6 49.9°
Reaches altitude 10° 12:03:40 10° 181° (S) 2,016 8.1 49.8°
Maximum altitude 12:07:44 33° 118° (ESE) 1,118 6.4 49.7°
Drops below altitude 10° 12:12:09 10° 55° (NE) 2,197 7.2 49.5°
Sets 12:14:48 0° 46° (NE) 3,182 7.9 49.4°
